Tracking 35331 objects as of 15-Sep-2026
HD Live streaming from Space Station
objects crossing your sky now

STARLINK-11511

Track STARLINK-11511 now!
10-day predictions
STARLINK-11511 is classified as:


NORAD ID: 62468
Int'l Code: 2024-254G
Launch date: December 31, 2024
Source: United States (US)
Launch site: AIR FORCE EASTERN TEST RANGE (AFETR)
Your satellite tracking list
Your tracking list is empty




NASA's NSSDC Master Catalog

Two Line Element Set (TLE):
1 62468U 24254G   26257.99331857  .00217751  00000-0  16555-2 0  9997
2 62468  43.0003 161.9336 0002146 278.3509  81.7115 15.70853156 99174
Source of the keplerian elements: AFSPC